,,Stat5,,Stat1,,Stat2,,Stat3,,Stat4,,Wind1,,Wind1,
time,status,PA1M_AVG,status,PR1M_SUM,status,RH1M_AVG,status,SR1M_AVG,status,TA1M_AVG,status,W1dAve1m,status,W1sAve1m,
2003-09-06, 00:00:00,VALID,919.232,VALID,0,VALID,100,VALID,0.0509425,VALID,17.6811,VALID,133,VALID,0.241343,
2003-09-06, 00:01:00,VALID,919.238,VALID,0,VALID,100,VALID,0.0679233,VALID,17.6522,VALID,133,VALID,0.211161,
2003-09-06, 00:02:00,VALID,919.24,VALID,0,VALID,100,VALID,0.0169808,VALID,17.6006,VALID,133,VALID,0.495175,
2003-09-06, 00:03:00,VALID,919.224,VALID,0,VALID,100,VALID,0.0339617,VALID,17.5971,VALID,138,VALID,0.60259,
2003-09-06, 00:04:00,VALID,919.21,VALID,0,VALID,100,VALID,0.101885,VALID,17.6262,VALID,153,VALID,0.348741,
2003-09-06, 00:05:00,VALID,919.183,VALID,0,VALID,100,VALID,0.0509425,VALID,17.6425,VALID,143,VALID,0.677517,
2003-09-06, 00:06:00,VALID,919.158,VALID,0,VALID,100,VALID,0.0169808,VALID,17.6557,VALID,137,VALID,0.670956,
2003-09-06, 00:07:00,VALID,919.115,VALID,0,VALID,100,VALID,0.0679233,VALID,17.6582,VALID,131,VALID,0.512541,
2003-09-06, 00:08:00,VALID,919.087,VALID,0,VALID,100,VALID,0.0509425,VALID,17.6421,VALID,125,VALID,0.320964,
2003-09-06, 00:09:00,VALID,919.062,VALID,0,VALID,100,VALID,0.0849042,VALID,17.649,VALID,125,VALID,0.493243,
2003-09-06, 00:10:00,VALID,919.053,VALID,0,VALID,100,VALID,0.0509425,VALID,17.6907,VALID,126,VALID,0.68149,
2003-09-06, 00:11:00,VALID,919.04,VALID,0,VALID,100,VALID,0.0169808,VALID,17.7262,VALID,127,VALID,0.581731,
2003-09-06, 00:12:00,VALID,919.014,VALID,0,VALID,100,VALID,0.0509425,VALID,17.7161,VALID,142,VALID,0.649054,
2003-09-06, 00:13:00,VALID,918.995,VALID,0,VALID,100,VALID,0.0339617,VALID,17.7327,VALID,151,VALID,0.767228,
2003-09-06, 00:14:00,VALID,918.992,VALID,0,VALID,100,VALID,0.0339617,VALID,17.7551,VALID,145,VALID,1.03248,
2003-09-06, 00:15:00,VALID,918.982,VALID,0,VALID,100,VALID,0.0509425,VALID,17.8588,VALID,146,VALID,1.27404,
2003-09-06, 00:16:00,VALID,918.972,VALID,0,VALID,100,VALID,0.0169808,VALID,17.9395,VALID,146,VALID,1.33717,
2003-09-06, 00:17:00,VALID,918.988,VALID,0,VALID,100,VALID,0.0339617,VALID,17.9812,VALID,147,VALID,1.14623,
2003-09-06, 00:18:00,VALID,919.014,VALID,0,VALID,100,VALID,0.0339617,VALID,18.0006,VALID,141,VALID,0.7169,
2003-09-06, 00:19:00,VALID,919.021,VALID,0,VALID,100,VALID,0.0509425,VALID,17.978,VALID,139,VALID,0.483373,
2003-09-06, 00:20:00,VALID,919.03,VALID,0,VALID,100,VALID,0.0509425,VALID,17.9628,VALID,140,VALID,0.630757,
2003-09-06, 00:21:00,VALID,919.029,VALID,0,VALID,100,VALID,0.0339617,VALID,17.9201,VALID,156,VALID,0.806891,
2003-09-06, 00:22:00,VALID,919.008,VALID,0,VALID,100,VALID,0.0509425,VALID,17.8556,VALID,161,VALID,0.518914,
2003-09-06, 00:23:00,VALID,918.98,VALID,0,VALID,100,VALID,0.0509425,VALID,17.8397,VALID,170,VALID,0.807292,
2003-09-06, 00:24:00,VALID,918.957,VALID,0,VALID,100,VALID,0.0339617,VALID,17.833,VALID,168,VALID,0.84889,
2003-09-06, 00:25:00,VALID,918.925,VALID,0,VALID,100,VALID,0.0169808,VALID,17.8201,VALID,168,VALID,0.789463,
2003-09-06, 00:26:00,VALID,918.918,VALID,0,VALID,100,VALID,0.0169808,VALID,17.8168,VALID,159,VALID,0.491982,
2003-09-06, 00:27:00,VALID,918.915,VALID,0,VALID,100,VALID,-0.0509425,VALID,17.8048,VALID,146,VALID,0.773037,
2003-09-06, 00:28:00,VALID,918.915,VALID,0,VALID,100,VALID,-0.0849042,VALID,17.812,VALID,139,VALID,0.79153,
2003-09-06, 00:29:00,VALID,918.915,VALID,0,VALID,100,VALID,-0.0849042,VALID,17.7986,VALID,133,VALID,0.756611,
2003-09-06, 00:30:00,VALID,918.926,VALID,0,VALID,100,VALID,-0.0679233,VALID,17.802,VALID,128,VALID,0.919202,
2003-09-06, 00:31:00,VALID,918.918,VALID,0,VALID,100,VALID,-0.0679233,VALID,17.8115,VALID,135,VALID,0.898438,
2003-09-06, 00:32:00,VALID,918.901,VALID,0,VALID,100,VALID,-0.101885,VALID,17.8371,VALID,136,VALID,0.824219,
2003-09-06, 00:33:00,VALID,918.882,VALID,0,VALID,100,VALID,-0.0849042,VALID,17.8567,VALID,111,VALID,0.586939,
2003-09-06, 00:34:00,VALID,918.869,VALID,0,VALID,100,VALID,-0.0849042,VALID,17.8761,VALID,106,VALID,0.706826,
2003-09-06, 00:35:00,VALID,918.839,VALID,0,VALID,100,VALID,-0.0849042,VALID,17.8989,VALID,104,VALID,0.931891,
2003-09-06, 00:36:00,VALID,918.827,VALID,0,VALID,100,VALID,-0.0509425,VALID,17.9213,VALID,94,VALID,0.931127,
2003-09-06, 00:37:00,VALID,918.826,VALID,0,VALID,100,VALID,-0.0849042,VALID,17.9314,VALID,96,VALID,0.907252,
2003-09-06, 00:38:00,VALID,918.816,VALID,0,VALID,100,VALID,-0.0339617,VALID,17.9213,VALID,106,VALID,1.02097,
2003-09-06, 00:39:00,VALID,918.811,VALID,0,VALID,100,VALID,-0.0849042,VALID,17.9505,VALID,101,VALID,1.12019,
2003-09-06, 00:40:00,VALID,918.825,VALID,0,VALID,100,VALID,-0.0849042,VALID,17.9635,VALID,107,VALID,1.24239,
2003-09-06, 00:41:00,VALID,918.841,VALID,0,VALID,100,VALID,-0.0509425,VALID,17.9796,VALID,112,VALID,1.23337,
2003-09-06, 00:42:00,VALID,918.851,VALID,0,VALID,100,VALID,-0.0679233,VALID,17.9888,VALID,114,VALID,1.33861,
2003-09-06, 00:43:00,VALID,918.867,VALID,0,VALID,100,VALID,-0.101885,VALID,18.0054,VALID,117,VALID,1.33293,
2003-09-06, 00:44:00,VALID,918.88,VALID,0,VALID,100,VALID,-0.0849042,VALID,18.0119,VALID,122,VALID,1.05119,
2003-09-06, 00:45:00,VALID,918.894,VALID,0,VALID,100,VALID,-0.0509425,VALID,18.0017,VALID,131,VALID,0.992188,
2003-09-06, 00:46:00,VALID,918.876,VALID,0,VALID,100,VALID,-0.0339617,VALID,17.9953,VALID,139,VALID,1.00781,
2003-09-06, 00:47:00,VALID,918.862,VALID,0,VALID,100,VALID,-0.0509425,VALID,17.9794,VALID,133,VALID,0.870593,
2003-09-06, 00:48:00,VALID,918.852,VALID,0,VALID,100,VALID,-0.0339617,VALID,17.9665,VALID,128,VALID,0.890214,
2003-09-06, 00:49:00,VALID,918.844,VALID,0,VALID,100,VALID,-0.101885,VALID,17.9831,VALID,115,VALID,1.23638,
2003-09-06, 00:50:00,VALID,918.815,VALID,0,VALID,100,VALID,-0.0509425,VALID,17.9565,VALID,120,VALID,1.26069,
2003-09-06, 00:51:00,VALID,918.817,VALID,0,VALID,100,VALID,-0.0339617,VALID,17.9826,VALID,117,VALID,1.03926,
2003-09-06, 00:52:00,VALID,918.821,VALID,0,VALID,100,VALID,-0.0339617,VALID,17.9757,VALID,111,VALID,1.19038,
2003-09-06, 00:53:00,VALID,918.813,VALID,0,VALID,100,VALID,-0.0679233,VALID,17.9856,VALID,106,VALID,1.09675,
2003-09-06, 00:54:00,VALID,918.833,VALID,0,VALID,100,VALID,-0.0679233,VALID,17.9727,VALID,117,VALID,0.546464,
2003-09-06, 00:55:00,VALID,918.839,VALID,0,VALID,100,VALID,-0.0849042,VALID,17.9828,VALID,114,VALID,1.04026,
2003-09-06, 00:56:00,VALID,918.839,VALID,0,VALID,100,VALID,-0.0169808,VALID,17.9692,VALID,96,VALID,1.23808,
2003-09-06, 00:57:00,VALID,918.842,VALID,0,VALID,100,VALID,0,VALID,17.9882,VALID,101,VALID,1.11378,
2003-09-06, 00:58:00,VALID,918.843,VALID,0,VALID,100,VALID,0,VALID,18.0213,VALID,99,VALID,1.29708,
2003-09-06, 00:59:00,VALID,918.827,VALID,0,VALID,100,VALID,0,VALID,18.0077,VALID,94,VALID,1.14123,
2003-09-06, 01:00:00,VALID,918.818,VALID,0,VALID,100,VALID,-0.0169808,VALID,18.0011,VALID,93,VALID,1.25658,
2003-09-06, 01:01:00,VALID,918.792,VALID,0,VALID,100,VALID,0,VALID,17.9944,VALID,103,VALID,1.46955,
2003-09-06, 01:02:00,VALID,918.769,VALID,0,VALID,100,VALID,0,VALID,18.0177,VALID,89,VALID,1.25308,
2003-09-06, 01:03:00,VALID,918.745,VALID,0,VALID,100,VALID,0,VALID,17.9884,VALID,81,VALID,0.83734,
2003-09-06, 01:04:00,VALID,918.716,VALID,0,VALID,100,VALID,0,VALID,17.9593,VALID,71,VALID,0.960938,
2003-09-06, 01:05:00,VALID,918.701,VALID,0,VALID,100,VALID,0,VALID,17.9072,VALID,69,VALID,1.07292,
2003-09-06, 01:06:00,VALID,918.68,VALID,0,VALID,100,VALID,0.0169808,VALID,17.8846,VALID,72,VALID,1.17763,
2003-09-06, 01:07:00,VALID,918.667,VALID,0,VALID,100,VALID,0,VALID,17.8819,VALID,80,VALID,1.26242,
2003-09-06, 01:08:00,VALID,918.669,VALID,0,VALID,100,VALID,0.0509425,VALID,17.9107,VALID,92,VALID,1.31743,
2003-09-06, 01:09:00,VALID,918.677,VALID,0,VALID,100,VALID,0,VALID,17.9335,VALID,110,VALID,0.961939,
2003-09-06, 01:10:00,VALID,918.672,VALID,0,VALID,100,VALID,-0.0339617,VALID,17.9496,VALID,101,VALID,1.16941,
2003-09-06, 01:11:00,VALID,918.672,VALID,0,VALID,100,VALID,-0.0169808,VALID,17.9794,VALID,96,VALID,1.20333,
2003-09-06, 01:12:00,VALID,918.675,VALID,0,VALID,100,VALID,-0.118866,VALID,17.9801,VALID,93,VALID,1.0072,
2003-09-06, 01:13:00,VALID,918.662,VALID,0,VALID,100,VALID,-0.118866,VALID,17.9927,VALID,87,VALID,0.828325,
2003-09-06, 01:14:00,VALID,918.652,VALID,0,VALID,100,VALID,-0.0849042,VALID,18.0059,VALID,89,VALID,0.894737,
2003-09-06, 01:15:00,VALID,918.651,VALID,0,VALID,100,VALID,-0.118866,VALID,18.0156,VALID,89,VALID,0.863181,
2003-09-06, 01:16:00,VALID,918.65,VALID,0,VALID,100,VALID,-0.0849042,VALID,18.0119,VALID,101,VALID,0.831209,
2003-09-06, 01:17:00,VALID,918.652,VALID,0,VALID,100,VALID,-0.101885,VALID,18.025,VALID,111,VALID,0.736378,
2003-09-06, 01:18:00,VALID,918.641,VALID,0,VALID,100,VALID,-0.101885,VALID,18.0211,VALID,128,VALID,0.567845,
2003-09-06, 01:19:00,VALID,918.637,VALID,0,VALID,100,VALID,-0.0849042,VALID,18.022,VALID,140,VALID,0.23117,
2003-09-06, 01:20:00,VALID,918.643,VALID,0,VALID,100,VALID,-0.118866,VALID,17.9969,VALID,115,VALID,0.519326,
2003-09-06, 01:21:00,VALID,918.64,VALID,0,VALID,100,VALID,-0.118866,VALID,17.9545,VALID,111,VALID,1.26442,
2003-09-06, 01:22:00,VALID,918.629,VALID,0,VALID,100,VALID,-0.0849042,VALID,18.0545,VALID,102,VALID,1.36123,
2003-09-06, 01:23:00,VALID,918.641,VALID,0,VALID,100,VALID,-0.0849042,VALID,18.1253,VALID,103,VALID,1.25381,
2003-09-06, 01:24:00,VALID,918.63,VALID,0,VALID,100,VALID,-0.101885,VALID,18.1738,VALID,122,VALID,1.18729,
2003-09-06, 01:25:00,VALID,918.634,VALID,0,VALID,100,VALID,-0.0849042,VALID,18.2192,VALID,134,VALID,0.780649,
2003-09-06, 01:26:00,VALID,918.613,VALID,0,VALID,100,VALID,-0.101885,VALID,18.186,VALID,116,VALID,0.879112,
2003-09-06, 01:27:00,VALID,918.592,VALID,0,VALID,100,VALID,-0.101885,VALID,18.1576,VALID,111,VALID,1.13622,
2003-09-06, 01:28:00,VALID,918.595,VALID,0,VALID,100,VALID,-0.0849042,VALID,18.1703,VALID,107,VALID,1.38199,
2003-09-06, 01:29:00,VALID,918.576,VALID,0,VALID,100,VALID,-0.101885,VALID,18.1703,VALID,121,VALID,1.11819,
2003-09-06, 01:30:00,VALID,918.57,VALID,0,VALID,100,VALID,-0.101885,VALID,18.1475,VALID,139,VALID,0.807566,
2003-09-06, 01:31:00,VALID,918.559,VALID,0,VALID,100,VALID,-0.101885,VALID,18.1023,VALID,140,VALID,1.20112,
2003-09-06, 01:32:00,VALID,918.539,VALID,0,VALID,100,VALID,-0.101885,VALID,18.0506,VALID,133,VALID,1.15029,
2003-09-06, 01:33:00,VALID,918.529,VALID,0,VALID,100,VALID,-0.0849042,VALID,18.0057,VALID,141,VALID,0.798878,
2003-09-06, 01:34:00,VALID,918.524,VALID,0,VALID,100,VALID,-0.101885,VALID,17.9639,VALID,149,VALID,1.38466,
2003-09-06, 01:35:00,VALID,918.519,VALID,0,VALID,100,VALID,-0.101885,VALID,17.948,VALID,131,VALID,0.889623,
2003-09-06, 01:36:00,VALID,918.514,VALID,0,VALID,100,VALID,-0.101885,VALID,17.9319,VALID,132,VALID,0.950247,
2003-09-06, 01:37:00,VALID,918.501,VALID,0,VALID,100,VALID,-0.101885,VALID,17.9019,VALID,128,VALID,1.11979,
2003-09-06, 01:38:00,VALID,918.495,VALID,0,VALID,100,VALID,-0.101885,VALID,17.8961,VALID,129,VALID,1.0477,
2003-09-06, 01:39:00,VALID,918.49,VALID,0,VALID,100,VALID,-0.101885,VALID,17.8828,VALID,138,VALID,0.798277,
2003-09-06, 01:40:00,VALID,918.482,VALID,0,VALID,100,VALID,-0.118866,VALID,17.8894,VALID,123,VALID,0.968133,
2003-09-06, 01:41:00,VALID,918.466,VALID,0,VALID,100,VALID,-0.0679233,VALID,17.8927,VALID,114,VALID,1.13482,
2003-09-06, 01:42:00,VALID,918.456,VALID,0,VALID,100,VALID,0,VALID,17.901,VALID,129,VALID,0.801604,
2003-09-06, 01:43:00,VALID,918.449,VALID,0,VALID,100,VALID,0.0169808,VALID,17.9171,VALID,134,VALID,1.01583,
2003-09-06, 01:44:00,VALID,918.448,VALID,0,VALID,100,VALID,0.0339617,VALID,17.9107,VALID,125,VALID,1.066,
2003-09-06, 01:45:00,VALID,918.422,VALID,0,VALID,100,VALID,0,VALID,17.9367,VALID,142,VALID,1.00341,
2003-09-06, 01:46:00,VALID,918.419,VALID,0,VALID,100,VALID,0,VALID,17.9526,VALID,144,VALID,1.11698,
2003-09-06, 01:47:00,VALID,918.404,VALID,0,VALID,100,VALID,-0.0339617,VALID,17.9492,VALID,128,VALID,0.866386,
2003-09-06, 01:48:00,VALID,918.405,VALID,0,VALID,100,VALID,0.0169808,VALID,17.9434,VALID,130,VALID,0.951891,
2003-09-06, 01:49:00,VALID,918.388,VALID,0,VALID,100,VALID,-0.0169808,VALID,17.9174,VALID,114,VALID,1.16707,
2003-09-06, 01:50:00,VALID,918.365,VALID,0,VALID,100,VALID,0,VALID,17.9144,VALID,143,VALID,1.12459,
2003-09-06, 01:51:00,VALID,918.33,VALID,0,VALID,100,VALID,0,VALID,17.9042,VALID,132,VALID,1.30629,
2003-09-06, 01:52:00,VALID,918.288,VALID,0,VALID,100,VALID,0,VALID,17.9075,VALID,138,VALID,1.23006,
2003-09-06, 01:53:00,VALID,918.264,VALID,0,VALID,100,VALID,0,VALID,17.9017,VALID,146,VALID,1.13642,
2003-09-06, 01:54:00,VALID,918.24,VALID,0,VALID,100,VALID,0,VALID,17.8855,VALID,119,VALID,1.07669,
2003-09-06, 01:55:00,VALID,918.223,VALID,0,VALID,100,VALID,-0.0339617,VALID,17.8532,VALID,123,VALID,1.21054,
2003-09-06, 01:56:00,VALID,918.201,VALID,0,VALID,100,VALID,0,VALID,17.8307,VALID,125,VALID,1.1176,
2003-09-06, 01:57:00,VALID,918.174,VALID,0,VALID,100,VALID,-0.0339617,VALID,17.8175,VALID,113,VALID,1.39663,
2003-09-06, 01:58:00,VALID,918.162,VALID,0,VALID,100,VALID,0,VALID,17.8205,VALID,127,VALID,1.22595,
2003-09-06, 01:59:00,VALID,918.14,VALID,0,VALID,100,VALID,-0.0169808,VALID,17.8337,VALID,134,VALID,0.974359,
2003-09-06, 02:00:00,VALID,918.122,VALID,0,VALID,100,VALID,0,VALID,17.8632,VALID,135,VALID,1.25493,
2003-09-06, 02:01:00,VALID,918.1,VALID,0,VALID,100,VALID,0,VALID,17.8694,VALID,116,VALID,1.25481,
2003-09-06, 02:02:00,VALID,918.098,VALID,0,VALID,100,VALID,0,VALID,17.8788,VALID,143,VALID,1.22327,
2003-09-06, 02:03:00,VALID,918.092,VALID,0,VALID,100,VALID,-0.0339617,VALID,17.9051,VALID,134,VALID,1.52384,
2003-09-06, 02:04:00,VALID,918.093,VALID,0,VALID,100,VALID,0,VALID,17.9372,VALID,136,VALID,1.34293,
2003-09-06, 02:05:00,VALID,918.094,VALID,0,VALID,100,VALID,0,VALID,17.943,VALID,141,VALID,1.6899,
2003-09-06, 02:06:00,VALID,918.078,VALID,0,VALID,100,VALID,0,VALID,17.9531,VALID,115,VALID,1.09437,
2003-09-06, 02:07:00,VALID,918.085,VALID,0,VALID,100,VALID,-0.0169808,VALID,17.9665,VALID,122,VALID,1.11558,
2003-09-06, 02:08:00,VALID,918.062,VALID,0,VALID,100,VALID,-0.0339617,VALID,17.9632,VALID,126,VALID,0.903166,
2003-09-06, 02:09:00,VALID,918.05,VALID,0,VALID,100,VALID,-0.0169808,VALID,17.9628,VALID,116,VALID,1.33954,
2003-09-06, 02:10:00,VALID,918.046,VALID,0,VALID,100,VALID,-0.0169808,VALID,17.9628,VALID,107,VALID,0.903577,
2003-09-06, 02:11:00,VALID,918.041,VALID,0,VALID,100,VALID,-0.0509425,VALID,17.9473,VALID,120,VALID,1.00881,
2003-09-06, 02:12:00,VALID,918.038,VALID,0,VALID,100,VALID,0,VALID,17.9466,VALID,121,VALID,1.13754,
2003-09-06, 02:13:00,VALID,918.033,VALID,0,VALID,100,VALID,-0.0169808,VALID,17.9598,VALID,115,VALID,1.11719,
2003-09-06, 02:14:00,VALID,918.031,VALID,0,VALID,100,VALID,-0.0169808,VALID,17.9759,VALID,122,VALID,1.40789,
2003-09-06, 02:15:00,VALID,918.029,VALID,0,VALID,100,VALID,0,VALID,17.9951,VALID,128,VALID,1.36158,
2003-09-06, 02:16:00,VALID,918.041,VALID,0,VALID,100,VALID,-0.0169808,VALID,18.0181,VALID,126,VALID,0.912418,
2003-09-06, 02:17:00,VALID,918.049,VALID,0,VALID,100,VALID,0,VALID,17.9912,VALID,112,VALID,0.948117,
2003-09-06, 02:18:00,VALID,918.057,VALID,0,VALID,100,VALID,0.0169808,VALID,18.005,VALID,103,VALID,1.11965,
2003-09-06, 02:19:00,VALID,918.071,VALID,0,VALID,100,VALID,0,VALID,17.9791,VALID,95,VALID,0.917668,
2003-09-06, 02:20:00,VALID,918.077,VALID,0,VALID,100,VALID,0,VALID,17.9589,VALID,90,VALID,0.875822,
2003-09-06, 02:21:00,VALID,918.075,VALID,0,VALID,100,VALID,0,VALID,17.9533,VALID,76,VALID,1.03686,
2003-09-06, 02:22:00,VALID,918.083,VALID,0,VALID,100,VALID,-0.0169808,VALID,17.9591,VALID,98,VALID,1.05387,
2003-09-06, 02:23:00,VALID,918.091,VALID,0,VALID,100,VALID,0,VALID,17.9565,VALID,91,VALID,0.837941,
2003-09-06, 02:24:00,VALID,918.098,VALID,0,VALID,100,VALID,0,VALID,17.9535,VALID,81,VALID,0.998972,
2003-09-06, 02:25:00,VALID,918.084,VALID,0,VALID,100,VALID,-0.0169808,VALID,17.9499,VALID,81,VALID,1.0024,
2003-09-06, 02:26:00,VALID,918.082,VALID,0,VALID,100,VALID,-0.0169808,VALID,17.9535,VALID,86,VALID,0.946546,
2003-09-06, 02:27:00,VALID,918.062,VALID,0,VALID,100,VALID,-0.0169808,VALID,17.9268,VALID,95,VALID,1.14944,
2003-09-06, 02:28:00,VALID,918.049,VALID,0,VALID,100,VALID,-0.0339617,VALID,17.9273,VALID,101,VALID,1.16345,
2003-09-06, 02:29:00,VALID,918.053,VALID,0,VALID,100,VALID,0,VALID,17.9277,VALID,101,VALID,0.888421,
2003-09-06, 02:30:00,VALID,918.058,VALID,0,VALID,100,VALID,0,VALID,17.8761,VALID,97,VALID,0.729235,
2003-09-06, 02:31:00,VALID,918.067,VALID,0,VALID,100,VALID,0,VALID,17.8373,VALID,113,VALID,0.848958,
2003-09-06, 02:32:00,VALID,918.067,VALID,0,VALID,100,VALID,0,VALID,17.8177,VALID,123,VALID,0.863281,
2003-09-06, 02:33:00,VALID,918.077,VALID,0,VALID,100,VALID,0,VALID,17.8147,VALID,110,VALID,1.1893,
2003-09-06, 02:34:00,VALID,918.077,VALID,0,VALID,100,VALID,-0.0169808,VALID,17.8014,VALID,130,VALID,0.761924,
2003-09-06, 02:35:00,VALID,918.089,VALID,0,VALID,100,VALID,-0.0169808,VALID,17.7855,VALID,127,VALID,0.514223,
2003-09-06, 02:36:00,VALID,918.106,VALID,0,VALID,100,VALID,0,VALID,17.776,VALID,138,VALID,0.551604,
2003-09-06, 02:37:00,VALID,918.135,VALID,0,VALID,100,VALID,0,VALID,17.7693,VALID,139,VALID,0.851362,
2003-09-06, 02:38:00,VALID,918.144,VALID,0,VALID,100,VALID,-0.0169808,VALID,17.7663,VALID,138,VALID,0.927837,
2003-09-06, 02:39:00,VALID,918.15,VALID,0,VALID,100,VALID,0,VALID,17.776,VALID,145,VALID,0.792468,
2003-09-06, 02:40:00,VALID,918.136,VALID,0,VALID,100,VALID,0,VALID,17.7756,VALID,143,VALID,1.01028,
2003-09-06, 02:41:00,VALID,918.119,VALID,0,VALID,100,VALID,0,VALID,17.7986,VALID,137,VALID,0.94371,
2003-09-06, 02:42:00,VALID,918.1,VALID,0,VALID,100,VALID,-0.0509425,VALID,17.8212,VALID,133,VALID,0.938528,
2003-09-06, 02:43:00,VALID,918.066,VALID,0,VALID,100,VALID,0,VALID,17.8468,VALID,131,VALID,1.0004,
2003-09-06, 02:44:00,VALID,918.043,VALID,0,VALID,100,VALID,0,VALID,17.85,VALID,125,VALID,1.06641,
2003-09-06, 02:45:00,VALID,918.016,VALID,0,VALID,100,VALID,0,VALID,17.847,VALID,121,VALID,0.934095,
2003-09-06, 02:46:00,VALID,917.997,VALID,0,VALID,100,VALID,0,VALID,17.8567,VALID,105,VALID,1.19223,
2003-09-06, 02:47:00,VALID,917.974,VALID,0,VALID,100,VALID,-0.0169808,VALID,17.8858,VALID,116,VALID,1.08313,
2003-09-06, 02:48:00,VALID,917.966,VALID,0,VALID,100,VALID,0,VALID,17.8915,VALID,112,VALID,1.05695,
2003-09-06, 02:49:00,VALID,917.961,VALID,0,VALID,100,VALID,-0.0169808,VALID,17.9342,VALID,110,VALID,1.15044,
2003-09-06, 02:50:00,VALID,917.961,VALID,0,VALID,100,VALID,0,VALID,17.9695,VALID,91,VALID,1.04688,
2003-09-06, 02:51:00,VALID,917.947,VALID,0,VALID,100,VALID,-0.0339617,VALID,17.9727,VALID,103,VALID,1.09115,
2003-09-06, 02:52:00,VALID,917.938,VALID,0,VALID,100,VALID,-0.0169808,VALID,17.9888,VALID,93,VALID,1.04708,
2003-09-06, 02:53:00,VALID,917.937,VALID,0,VALID,100,VALID,-0.0169808,VALID,17.9789,VALID,97,VALID,0.960337,
2003-09-06, 02:54:00,VALID,917.928,VALID,0,VALID,100,VALID,0,VALID,17.9861,VALID,74,VALID,1.44552,
2003-09-06, 02:55:00,VALID,917.901,VALID,0,VALID,99.9507,VALID,-0.0679233,VALID,17.9925,VALID,85,VALID,0.823918,
2003-09-06, 02:56:00,VALID,917.895,VALID,0,VALID,99.8909,VALID,-0.0169808,VALID,17.9856,VALID,85,VALID,1.23335,
2003-09-06, 02:57:00,VALID,917.877,VALID,0,VALID,99.9049,VALID,0.0849042,VALID,17.9902,VALID,98,VALID,1.10457,
2003-09-06, 02:58:00,VALID,917.868,VALID,0,VALID,99.8108,VALID,0.0849042,VALID,17.9997,VALID,82,VALID,0.965666,
2003-09-06, 02:59:00,VALID,917.862,VALID,0,VALID,99.7523,VALID,0.0849042,VALID,18.0036,VALID,66,VALID,1.07131,
2003-09-06, 03:00:00,VALID,917.839,VALID,0,VALID,99.7078,VALID,0.0679233,VALID,18.0006,VALID,73,VALID,1.20991,
2003-09-06, 03:01:00,VALID,917.823,VALID,0,VALID,99.6506,VALID,0.101885,VALID,18.0034,VALID,66,VALID,1.10657,
2003-09-06, 03:02:00,VALID,917.81,VALID,0,VALID,99.5819,VALID,0.0679233,VALID,18.0038,VALID,76,VALID,0.976974,
2003-09-06, 03:03:00,VALID,917.796,VALID,0,VALID,99.5755,VALID,0.0849042,VALID,17.9974,VALID,93,VALID,0.92508,
2003-09-06, 03:04:00,VALID,917.775,VALID,0,VALID,99.5806,VALID,0.0509425,VALID,17.9907,VALID,110,VALID,1.09067,
2003-09-06, 03:05:00,VALID,917.773,VALID,0,VALID,99.6264,VALID,0.0509425,VALID,18.0101,VALID,111,VALID,1.21554,
2003-09-06, 03:06:00,VALID,917.764,VALID,0,VALID,99.5857,VALID,0.0849042,VALID,18.0002,VALID,100,VALID,1.24465,
2003-09-06, 03:07:00,VALID,917.745,VALID,0,VALID,99.5794,VALID,0.0849042,VALID,18.0198,VALID,96,VALID,1.33433,
2003-09-06, 03:08:00,VALID,917.733,VALID,0,VALID,99.5069,VALID,0.0679233,VALID,18.0168,VALID,102,VALID,1.09683,
2003-09-06, 03:09:00,VALID,917.733,VALID,0,VALID,99.4776,VALID,0.0679233,VALID,17.9999,VALID,94,VALID,1.03506,
2003-09-06, 03:10:00,VALID,917.713,VALID,0,VALID,99.4585,VALID,0.0849042,VALID,17.987,VALID,91,VALID,1.18215,
2003-09-06, 03:11:00,VALID,917.712,VALID,0,VALID,99.4242,VALID,0.0509425,VALID,17.9782,VALID,78,VALID,1.25421,
2003-09-06, 03:12:00,VALID,917.696,VALID,0,VALID,99.4382,VALID,-0.0169808,VALID,17.9729,VALID,79,VALID,1.36678,
2003-09-06, 03:13:00,VALID,917.698,VALID,0,VALID,99.4255,VALID,-0.0169808,VALID,17.9731,VALID,69,VALID,1.1236,
2003-09-06, 03:14:00,VALID,917.676,VALID,0,VALID,99.3962,VALID,-0.0509425,VALID,17.9572,VALID,82,VALID,1.18544,
2003-09-06, 03:15:00,VALID,917.685,VALID,0,VALID,99.339,VALID,-0.0679233,VALID,17.9503,VALID,82,VALID,1.05809,
2003-09-06, 03:16:00,VALID,917.683,VALID,0,VALID,99.311,VALID,-0.0339617,VALID,17.9273,VALID,91,VALID,1.01131,
2003-09-06, 03:17:00,VALID,917.689,VALID,0,VALID,99.3161,VALID,0,VALID,17.9344,VALID,121,VALID,1.15665,
2003-09-06, 03:18:00,VALID,917.693,VALID,0,VALID,99.4318,VALID,0,VALID,17.9469,VALID,133,VALID,1.48828,
2003-09-06, 03:19:00,VALID,917.671,VALID,0,VALID,99.4013,VALID,-0.0169808,VALID,17.9667,VALID,131,VALID,1.19071,
2003-09-06, 03:20:00,VALID,917.654,VALID,0,VALID,99.3886,VALID,0,VALID,17.96,VALID,140,VALID,1.34272,
2003-09-06, 03:21:00,VALID,917.639,VALID,0,VALID,99.3644,VALID,-0.0169808,VALID,17.9665,VALID,127,VALID,1.75801,
2003-09-06, 03:22:00,VALID,917.614,VALID,0,VALID,99.4204,VALID,-0.0169808,VALID,17.9888,VALID,128,VALID,1.86616,
2003-09-06, 03:23:00,VALID,917.599,VALID,0,VALID,99.2805,VALID,-0.0509425,VALID,17.9985,VALID,132,VALID,1.35737,
2003-09-06, 03:24:00,VALID,917.601,VALID,0,VALID,99.2055,VALID,-0.0169808,VALID,18.0084,VALID,136,VALID,1.3715,
2003-09-06, 03:25:00,VALID,917.61,VALID,0,VALID,99.1661,VALID,-0.0169808,VALID,17.9955,VALID,129,VALID,1.32792,
2003-09-06, 03:26:00,VALID,917.608,VALID,0,VALID,99.1674,VALID,0,VALID,17.9921,VALID,126,VALID,1.31887,
2003-09-06, 03:27:00,VALID,917.634,VALID,0,VALID,99.1012,VALID,-0.0339617,VALID,17.9893,VALID,124,VALID,1.5633,
2003-09-06, 03:28:00,VALID,917.656,VALID,0,VALID,99.0605,VALID,-0.0509425,VALID,17.9632,VALID,133,VALID,1.18462,
2003-09-06, 03:29:00,VALID,917.665,VALID,0,VALID,99.0364,VALID,-0.0339617,VALID,17.9505,VALID,135,VALID,1.0611,
2003-09-06, 03:30:00,VALID,917.68,VALID,0,VALID,99.1216,VALID,-0.0339617,VALID,17.9277,VALID,140,VALID,1.12294,
2003-09-06, 03:31:00,VALID,917.677,VALID,0,VALID,99.1127,VALID,-0.0169808,VALID,17.9146,VALID,150,VALID,1.13842,
2003-09-06, 03:32:00,VALID,917.687,VALID,0,VALID,99.0936,VALID,-0.0339617,VALID,17.8918,VALID,150,VALID,1.21608,
2003-09-06, 03:33:00,VALID,917.711,VALID,0,VALID,99.1368,VALID,-0.0169808,VALID,17.8625,VALID,154,VALID,0.939103,
2003-09-06, 03:34:00,VALID,917.71,VALID,0,VALID,99.2157,VALID,-0.0169808,VALID,17.8563,VALID,137,VALID,0.819285,
2003-09-06, 03:35:00,VALID,917.709,VALID,0,VALID,99.278,VALID,0,VALID,17.8371,VALID,129,VALID,0.787861,
2003-09-06, 03:36:00,VALID,917.735,VALID,0,VALID,99.3937,VALID,0.0169808,VALID,17.8337,VALID,114,VALID,0.453331,
2003-09-06, 03:37:00,VALID,917.74,VALID,0,VALID,99.428,VALID,0.0169808,VALID,17.8436,VALID,108,VALID,0.589543,
2003-09-06, 03:38:00,VALID,917.762,VALID,0,VALID,99.4331,VALID,-0.0169808,VALID,17.8302,VALID,79,VALID,0.611225,
2003-09-06, 03:39:00,VALID,917.783,VALID,0,VALID,99.4331,VALID,-0.0169808,VALID,17.8309,VALID,54,VALID,0.952925,
2003-09-06, 03:40:00,VALID,917.787,VALID,0,VALID,99.3556,VALID,0,VALID,17.8145,VALID,45,VALID,0.996094,
2003-09-06, 03:41:00,VALID,917.791,VALID,0,VALID,99.2767,VALID,0,VALID,17.7859,VALID,48,VALID,0.97496,